Wetterdaten: Dienstag, 18.02.2014
Datum Zeit Temp. A. Feuchte A. Luftdruck Regen Wind Richtung Richtung Sonnenschein UV Solar Windben
18.02.2014 00:00 1,3 C 90 % 1016,4 hPa 0,0 mm 0,0 km/h (0 Bft) N 0 0 min 0 UV-I 0 W/m 0,0 km/h (0 Bft)
18.02.2014 00:10 1,2 C 90 % 1016,5 hPa 0,0 mm 0,0 km/h (0 Bft) N 0 0 min 0 UV-I 0 W/m 0,0 km/h (0 Bft)
18.02.2014 00:20 1,1 C 90 % 1016,5 hPa 0,0 mm 0,0 km/h (0 Bft) N 0 0 min 0 UV-I 0 W/m 0,0 km/h (0 Bft)
18.02.2014 00:30 1,0 C 90 % 1016,6 hPa 0,0 mm 0,0 km/h (0 Bft) N 0 0 min 0 UV-I 0 W/m 0,0 km/h (0 Bft)
18.02.2014 00:40 0,9 C 90 % 1016,7 hPa 0,0 mm 0,0 km/h (0 Bft) N 0 0 min 0 UV-I 0 W/m 0,0 km/h (0 Bft)
18.02.2014 00:50 0,8 C 90 % 1016,6 hPa 0,0 mm 0,0 km/h (0 Bft) N 0 0 min 0 UV-I 0 W/m 0,0 km/h (0 Bft)
18.02.2014 01:00 0,7 C 90 % 1016,6 hPa 0,0 mm 0,0 km/h (0 Bft) N 0 0 min 0 UV-I 0 W/m 0,0 km/h (0 Bft)
18.02.2014 01:10 0,6 C 90 % 1016,7 hPa 0,0 mm 0,0 km/h (0 Bft) N 0 0 min 0 UV-I 0 W/m 0,0 km/h (0 Bft)
18.02.2014 01:20 0,4 C 90 % 1016,8 hPa 0,0 mm 0,0 km/h (0 Bft) N 0 0 min 0 UV-I 0 W/m 0,0 km/h (0 Bft)
18.02.2014 01:30 0,3 C 90 % 1016,8 hPa 0,0 mm 0,0 km/h (0 Bft) N 0 0 min 0 UV-I 0 W/m 0,0 km/h (0 Bft)
18.02.2014 01:40 0,2 C 89 % 1016,7 hPa 0,0 mm 0,0 km/h (0 Bft) W-SW 247 0 min 0 UV-I 0 W/m 1,6 km/h (1 Bft)
18.02.2014 01:50 0,1 C 90 % 1016,5 hPa 0,0 mm 0,0 km/h (0 Bft) N 0 0 min 0 UV-I 0 W/m 0,0 km/h (0 Bft)
18.02.2014 02:00 0,0 C 90 % 1016,6 hPa 0,0 mm 0,0 km/h (0 Bft) N 0 0 min 0 UV-I 0 W/m 0,0 km/h (0 Bft)
18.02.2014 02:10 -0,1 C 90 % 1016,6 hPa 0,0 mm 0,0 km/h (0 Bft) N 0 0 min 0 UV-I 0 W/m 0,0 km/h (0 Bft)
18.02.2014 02:20 -0,1 C 90 % 1016,7 hPa 0,0 mm 0,0 km/h (0 Bft) N 0 0 min 0 UV-I 0 W/m 0,0 km/h (0 Bft)
18.02.2014 02:30 -0,2 C 90 % 1016,7 hPa 0,0 mm 0,0 km/h (0 Bft) N 0 0 min 0 UV-I 0 W/m 0,0 km/h (0 Bft)
18.02.2014 02:40 -0,2 C 90 % 1016,7 hPa 0,0 mm 0,0 km/h (0 Bft) N 0 0 min 0 UV-I 0 W/m 0,0 km/h (0 Bft)
18.02.2014 02:50 -0,2 C 90 % 1016,6 hPa 0,0 mm 0,0 km/h (0 Bft) N 0 0 min 0 UV-I 0 W/m 0,0 km/h (0 Bft)
18.02.2014 03:00 -0,2 C 90 % 1016,5 hPa 0,0 mm 0,0 km/h (0 Bft) N 0 0 min 0 UV-I 0 W/m 0,0 km/h (0 Bft)
18.02.2014 03:10 -0,2 C 90 % 1016,5 hPa 0,0 mm 0,0 km/h (0 Bft) N 0 0 min 0 UV-I 0 W/m 0,0 km/h (0 Bft)
18.02.2014 03:20 -0,3 C 90 % 1016,4 hPa 0,0 mm 0,0 km/h (0 Bft) N 0 0 min 0 UV-I 0 W/m 0,0 km/h (0 Bft)
18.02.2014 03:30 -0,3 C 90 % 1016,2 hPa 0,0 mm 0,0 km/h (0 Bft) N 0 0 min 0 UV-I 0 W/m 0,0 km/h (0 Bft)
18.02.2014 03:40 -0,3 C 90 % 1016,1 hPa 0,0 mm 0,0 km/h (0 Bft) N 0 0 min 0 UV-I 0 W/m 0,0 km/h (0 Bft)
18.02.2014 03:50 -0,3 C 90 % 1015,9 hPa 0,0 mm 0,0 km/h (0 Bft) N 0 0 min 0 UV-I 0 W/m 0,0 km/h (0 Bft)
18.02.2014 04:00 -0,3 C 90 % 1015,7 hPa 0,0 mm 0,0 km/h (0 Bft) N 0 0 min 0 UV-I 0 W/m 0,0 km/h (0 Bft)
18.02.2014 04:10 -0,3 C 90 % 1015,7 hPa 0,0 mm 0,0 km/h (0 Bft) N 0 0 min 0 UV-I 0 W/m 0,0 km/h (0 Bft)
18.02.2014 04:20 -0,3 C 90 % 1015,6 hPa 0,0 mm 0,0 km/h (0 Bft) N 0 0 min 0 UV-I 0 W/m 0,0 km/h (0 Bft)
18.02.2014 04:30 -0,3 C 90 % 1015,5 hPa 0,0 mm 0,0 km/h (0 Bft) N 0 0 min 0 UV-I 0 W/m 0,0 km/h (0 Bft)
18.02.2014 04:40 -0,3 C 90 % 1015,4 hPa 0,0 mm 0,0 km/h (0 Bft) N 0 0 min 0 UV-I 0 W/m 0,0 km/h (0 Bft)
18.02.2014 04:50 -0,3 C 90 % 1015,5 hPa 0,0 mm 0,0 km/h (0 Bft) N 0 0 min 0 UV-I 0 W/m 0,0 km/h (0 Bft)
18.02.2014 05:00 -0,2 C 90 % 1015,5 hPa 0,0 mm 0,0 km/h (0 Bft) N 0 0 min 0 UV-I 0 W/m 0,0 km/h (0 Bft)
18.02.2014 05:10 -0,2 C 90 % 1015,5 hPa 0,0 mm 0,0 km/h (0 Bft) N 0 0 min 0 UV-I 0 W/m 0,0 km/h (0 Bft)
18.02.2014 05:20 -0,2 C 90 % 1015,5 hPa 0,0 mm 0,0 km/h (0 Bft) N 0 0 min 0 UV-I 0 W/m 0,0 km/h (0 Bft)
18.02.2014 05:30 -0,2 C 90 % 1015,4 hPa 0,0 mm 0,0 km/h (0 Bft) N 0 0 min 0 UV-I 0 W/m 0,0 km/h (0 Bft)
18.02.2014 05:40 -0,2 C 90 % 1015,3 hPa 0,0 mm 0,0 km/h (0 Bft) N 0 0 min 0 UV-I 0 W/m 0,0 km/h (0 Bft)
18.02.2014 05:50 -0,2 C 90 % 1015,3 hPa 0,0 mm 0,0 km/h (0 Bft) N 0 0 min 0 UV-I 0 W/m 0,0 km/h (0 Bft)
18.02.2014 06:00 -0,2 C 90 % 1015,2 hPa 0,0 mm 0,0 km/h (0 Bft) N 0 0 min 0 UV-I 0 W/m 0,0 km/h (0 Bft)
18.02.2014 06:10 -0,2 C 90 % 1015,1 hPa 0,0 mm 0,0 km/h (0 Bft) N 0 0 min 0 UV-I 0 W/m 0,0 km/h (0 Bft)
18.02.2014 06:20 -0,2 C 91 % 1015,0 hPa 0,0 mm 0,0 km/h (0 Bft) N 0 0 min 0 UV-I 0 W/m 0,0 km/h (0 Bft)
18.02.2014 06:30 -0,2 C 91 % 1015,1 hPa 0,0 mm 0,0 km/h (0 Bft) N 0 0 min 0 UV-I 0 W/m 0,0 km/h (0 Bft)
18.02.2014 06:40 -0,2 C 91 % 1015,0 hPa 0,0 mm 0,0 km/h (0 Bft) N 0 0 min 0 UV-I 0 W/m 0,0 km/h (0 Bft)
18.02.2014 06:50 -0,2 C 90 % 1015,1 hPa 0,0 mm 0,0 km/h (0 Bft) N 0 0 min 0 UV-I 0 W/m 0,0 km/h (0 Bft)
18.02.2014 07:00 -0,2 C 90 % 1015,1 hPa 0,0 mm 0,0 km/h (0 Bft) N 0 0 min 0 UV-I 0 W/m 0,0 km/h (0 Bft)
18.02.2014 07:10 -0,2 C 90 % 1015,0 hPa 0,0 mm 0,0 km/h (0 Bft) N 0 0 min 0 UV-I 0 W/m 0,0 km/h (0 Bft)
18.02.2014 07:20 -0,2 C 90 % 1015,1 hPa 0,0 mm 0,0 km/h (0 Bft) N 0 0 min 0 UV-I 0 W/m 0,0 km/h (0 Bft)
18.02.2014 07:30 -0,2 C 90 % 1015,2 hPa 0,0 mm 0,0 km/h (0 Bft) N 0 0 min 0 UV-I 0 W/m 0,0 km/h (0 Bft)
18.02.2014 07:40 -0,1 C 91 % 1015,3 hPa 0,0 mm 0,0 km/h (0 Bft) N 0 0 min 0 UV-I 0 W/m 0,0 km/h (0 Bft)
18.02.2014 07:50 -0,1 C 91 % 1015,3 hPa 0,0 mm 0,0 km/h (0 Bft) N 0 0 min 0 UV-I 5 W/m 0,0 km/h (0 Bft)
18.02.2014 08:00 0,1 C 91 % 1015,4 hPa 0,0 mm 0,0 km/h (0 Bft) W-SW 257 0 min 0 UV-I 13 W/m 0,0 km/h (0 Bft)
18.02.2014 08:10 0,1 C 91 % 1015,3 hPa 0,0 mm 0,0 km/h (0 Bft) N 0 0 min 0 UV-I 19 W/m 0,0 km/h (0 Bft)
18.02.2014 08:20 0,2 C 91 % 1015,2 hPa 0,0 mm 0,0 km/h (0 Bft) N 0 0 min 0 UV-I 25 W/m 0,0 km/h (0 Bft)
18.02.2014 08:30 0,3 C 91 % 1015,3 hPa 0,0 mm 0,0 km/h (0 Bft) N 0 0 min 0 UV-I 30 W/m 0,0 km/h (0 Bft)
18.02.2014 08:40 0,4 C 91 % 1015,3 hPa 0,0 mm 0,0 km/h (0 Bft) N 0 0 min 0 UV-I 33 W/m 0,0 km/h (0 Bft)
18.02.2014 08:50 0,7 C 91 % 1015,3 hPa 0,0 mm 0,0 km/h (0 Bft) N 0 0 min 0 UV-I 44 W/m 0,0 km/h (0 Bft)
18.02.2014 09:00 0,9 C 92 % 1015,1 hPa 0,0 mm 0,0 km/h (0 Bft) W-SW 247 0 min 0 UV-I 47 W/m 3,2 km/h (1 Bft)
18.02.2014 09:10 1,2 C 92 % 1015,0 hPa 0,0 mm 0,0 km/h (0 Bft) W-SW 247 0 min 0 UV-I 54 W/m 6,4 km/h (2 Bft)
18.02.2014 09:20 1,7 C 92 % 1015,0 hPa 0,0 mm 0,0 km/h (0 Bft) SW 225 0 min 0 UV-I 56 W/m 6,4 km/h (2 Bft)
18.02.2014 09:30 2,3 C 93 % 1014,8 hPa 0,0 mm 1,6 km/h (1 Bft) S-SO 157 0 min 0 UV-I 67 W/m 8,0 km/h (2 Bft)
18.02.2014 09:40 2,9 C 92 % 1014,8 hPa 0,0 mm 1,6 km/h (1 Bft) S-SO 157 0 min 0 UV-I 69 W/m 8,0 km/h (2 Bft)
18.02.2014 09:50 3,4 C 92 % 1014,8 hPa 0,0 mm 1,6 km/h (1 Bft) S-SO 157 0 min 0 UV-I 67 W/m 6,4 km/h (2 Bft)
18.02.2014 10:00 3,7 C 92 % 1014,8 hPa 0,0 mm 3,2 km/h (1 Bft) S-SO 157 0 min 0 UV-I 70 W/m 9,7 km/h (2 Bft)
18.02.2014 10:10 4,0 C 92 % 1014,7 hPa 0,0 mm 1,6 km/h (1 Bft) S-SO 157 0 min 0 UV-I 70 W/m 8,0 km/h (2 Bft)
18.02.2014 10:20 4,2 C 92 % 1014,7 hPa 0,0 mm 1,6 km/h (1 Bft) S-SO 157 0 min 0 UV-I 69 W/m 11,3 km/h (2 Bft)
18.02.2014 10:30 4,4 C 92 % 1014,7 hPa 0,0 mm 1,6 km/h (1 Bft) SO 135 0 min 0 UV-I 70 W/m 8,0 km/h (2 Bft)
18.02.2014 10:40 4,6 C 92 % 1014,6 hPa 0,0 mm 3,2 km/h (1 Bft) O-SO 112 0 min 0 UV-I 83 W/m 9,7 km/h (2 Bft)
18.02.2014 10:50 4,8 C 92 % 1014,5 hPa 0,0 mm 1,6 km/h (1 Bft) O-SO 112 0 min 1 UV-I 91 W/m 8,0 km/h (2 Bft)
18.02.2014 11:00 5,0 C 91 % 1014,5 hPa 0,0 mm 3,2 km/h (1 Bft) O-SO 112 0 min 1 UV-I 91 W/m 8,0 km/h (2 Bft)
18.02.2014 11:10 5,2 C 91 % 1014,3 hPa 0,0 mm 1,6 km/h (1 Bft) O-SO 112 0 min 1 UV-I 88 W/m 9,7 km/h (2 Bft)
18.02.2014 11:20 5,4 C 90 % 1014,2 hPa 0,0 mm 3,2 km/h (1 Bft) O-SO 112 0 min 1 UV-I 88 W/m 8,0 km/h (2 Bft)
18.02.2014 11:30 5,6 C 90 % 1014,2 hPa 0,0 mm 3,2 km/h (1 Bft) O-SO 112 0 min 1 UV-I 91 W/m 9,7 km/h (2 Bft)
18.02.2014 11:40 5,7 C 89 % 1014,2 hPa 0,0 mm 1,6 km/h (1 Bft) O-SO 112 0 min 1 UV-I 93 W/m 6,4 km/h (2 Bft)
18.02.2014 11:50 5,9 C 88 % 1014,1 hPa 0,0 mm 1,6 km/h (1 Bft) O-SO 112 0 min 1 UV-I 98 W/m 9,7 km/h (2 Bft)
18.02.2014 12:00 6,0 C 87 % 1014,0 hPa 0,0 mm 1,6 km/h (1 Bft) O-SO 112 0 min 1 UV-I 107 W/m 6,4 km/h (2 Bft)
18.02.2014 12:10 6,1 C 86 % 1014,0 hPa 0,0 mm 3,2 km/h (1 Bft) O 90 0 min 1 UV-I 109 W/m 11,3 km/h (2 Bft)
18.02.2014 12:20 6,3 C 85 % 1013,9 hPa 0,0 mm 3,2 km/h (1 Bft) SO 135 0 min 1 UV-I 109 W/m 9,7 km/h (2 Bft)
18.02.2014 12:30 6,4 C 84 % 1013,7 hPa 0,0 mm 3,2 km/h (1 Bft) O-SO 112 0 min 1 UV-I 104 W/m 9,7 km/h (2 Bft)
18.02.2014 12:40 6,6 C 83 % 1013,4 hPa 0,0 mm 3,2 km/h (1 Bft) O-SO 112 0 min 1 UV-I 105 W/m 9,7 km/h (2 Bft)
18.02.2014 12:50 6,7 C 81 % 1013,1 hPa 0,0 mm 6,4 km/h (2 Bft) O-SO 112 0 min 1 UV-I 116 W/m 14,5 km/h (3 Bft)
18.02.2014 13:00 6,8 C 80 % 1013,1 hPa 0,0 mm 3,2 km/h (1 Bft) O-SO 112 0 min 1 UV-I 116 W/m 9,7 km/h (2 Bft)
18.02.2014 13:10 6,9 C 79 % 1012,9 hPa 0,0 mm 3,2 km/h (1 Bft) O-SO 112 0 min 1 UV-I 123 W/m 8,0 km/h (2 Bft)
18.02.2014 13:20 7,1 C 78 % 1012,8 hPa 0,0 mm 3,2 km/h (1 Bft) O-SO 112 0 min 1 UV-I 130 W/m 8,0 km/h (2 Bft)
18.02.2014 13:30 7,2 C 77 % 1012,8 hPa 0,0 mm 3,2 km/h (1 Bft) O-SO 112 0 min 1 UV-I 125 W/m 8,0 km/h (2 Bft)
18.02.2014 13:40 7,4 C 76 % 1012,7 hPa 0,0 mm 4,8 km/h (1 Bft) O-SO 112 0 min 1 UV-I 105 W/m 14,5 km/h (3 Bft)
18.02.2014 13:50 7,5 C 74 % 1012,6 hPa 0,0 mm 4,8 km/h (1 Bft) O-SO 112 0 min 1 UV-I 100 W/m 16,1 km/h (3 Bft)
18.02.2014 14:00 7,6 C 74 % 1012,3 hPa 0,0 mm 3,2 km/h (1 Bft) O-SO 112 0 min 1 UV-I 98 W/m 11,3 km/h (2 Bft)
18.02.2014 14:10 7,7 C 73 % 1012,3 hPa 0,0 mm 4,8 km/h (1 Bft) O-SO 112 0 min 1 UV-I 97 W/m 11,3 km/h (2 Bft)
18.02.2014 14:20 7,7 C 72 % 1012,1 hPa 0,0 mm 4,8 km/h (1 Bft) O-SO 112 0 min 1 UV-I 98 W/m 8,0 km/h (2 Bft)
18.02.2014 14:30 7,8 C 72 % 1011,9 hPa 0,0 mm 4,8 km/h (1 Bft) O-SO 112 0 min 1 UV-I 93 W/m 11,3 km/h (2 Bft)
18.02.2014 14:40 7,8 C 71 % 1011,9 hPa 0,0 mm 4,8 km/h (1 Bft) O-SO 112 0 min 0 UV-I 84 W/m 14,5 km/h (3 Bft)
18.02.2014 14:50 7,8 C 71 % 1011,8 hPa 0,0 mm 3,2 km/h (1 Bft) O-SO 112 0 min 0 UV-I 76 W/m 9,7 km/h (2 Bft)
18.02.2014 15:00 7,8 C 70 % 1011,8 hPa 0,0 mm 3,2 km/h (1 Bft) O-SO 112 0 min 0 UV-I 69 W/m 8,0 km/h (2 Bft)
18.02.2014 15:10 7,8 C 71 % 1011,7 hPa 0,0 mm 3,2 km/h (1 Bft) O-SO 112 0 min 0 UV-I 72 W/m 9,7 km/h (2 Bft)
18.02.2014 15:20 7,8 C 71 % 1011,8 hPa 0,0 mm 1,6 km/h (1 Bft) O-SO 112 0 min 0 UV-I 81 W/m 6,4 km/h (2 Bft)
18.02.2014 15:30 7,8 C 71 % 1011,7 hPa 0,0 mm 1,6 km/h (1 Bft) O-SO 112 0 min 0 UV-I 84 W/m 8,0 km/h (2 Bft)
18.02.2014 15:40 7,8 C 71 % 1011,6 hPa 0,0 mm 1,6 km/h (1 Bft) O-SO 112 0 min 0 UV-I 77 W/m 9,7 km/h (2 Bft)
18.02.2014 15:50 7,8 C 71 % 1011,6 hPa 0,0 mm 3,2 km/h (1 Bft) O-SO 112 0 min 0 UV-I 65 W/m 9,7 km/h (2 Bft)
18.02.2014 16:00 7,8 C 71 % 1011,6 hPa 0,0 mm 2,6 km/h (1 Bft) O-SO 112 0 min 0 UV-I 56 W/m 8,0 km/h (2 Bft)
18.02.2014 16:10 7,7 C 71 % 1011,6 hPa 0,0 mm 3,2 km/h (1 Bft) O-SO 112 0 min 0 UV-I 63 W/m 8,0 km/h (2 Bft)
18.02.2014 16:20 7,7 C 70 % 1011,5 hPa 0,0 mm 3,2 km/h (1 Bft) O-SO 112 0 min 0 UV-I 44 W/m 8,0 km/h (2 Bft)
18.02.2014 16:30 7,6 C 70 % 1011,3 hPa 0,0 mm 3,2 km/h (1 Bft) O-SO 112 0 min 0 UV-I 32 W/m 11,3 km/h (2 Bft)
18.02.2014 16:40 7,6 C 70 % 1011,2 hPa 0,0 mm 3,2 km/h (1 Bft) O-SO 112 0 min 0 UV-I 26 W/m 8,0 km/h (2 Bft)
18.02.2014 16:50 7,4 C 70 % 1011,2 hPa 0,0 mm 1,6 km/h (1 Bft) O-SO 112 0 min 0 UV-I 23 W/m 8,0 km/h (2 Bft)
18.02.2014 17:00 7,4 C 70 % 1011,1 hPa 0,0 mm 1,6 km/h (1 Bft) O-SO 112 0 min 0 UV-I 23 W/m 8,0 km/h (2 Bft)
18.02.2014 17:10 7,3 C 70 % 1011,2 hPa 0,0 mm 1,6 km/h (1 Bft) O-SO 112 0 min 0 UV-I 16 W/m 6,4 km/h (2 Bft)
18.02.2014 17:20 7,2 C 70 % 1011,2 hPa 0,0 mm 1,6 km/h (1 Bft) O-SO 112 0 min 0 UV-I 11 W/m 6,4 km/h (2 Bft)
18.02.2014 17:30 7,2 C 71 % 1011,2 hPa 0,0 mm 1,6 km/h (1 Bft) O-SO 112 0 min 0 UV-I 7 W/m 6,4 km/h (2 Bft)
18.02.2014 17:40 7,1 C 71 % 1011,2 hPa 0,0 mm 1,6 km/h (1 Bft) O-SO 112 0 min 0 UV-I 0 W/m 8,0 km/h (2 Bft)
18.02.2014 17:50 7,0 C 71 % 1011,2 hPa 0,0 mm 1,6 km/h (1 Bft) O-SO 112 0 min 0 UV-I 0 W/m 6,4 km/h (2 Bft)
18.02.2014 18:00 6,9 C 72 % 1011,2 hPa 0,0 mm 1,6 km/h (1 Bft) O-SO 112 0 min 0 UV-I 0 W/m 8,0 km/h (2 Bft)
18.02.2014 18:10 6,8 C 72 % 1011,1 hPa 0,0 mm 1,6 km/h (1 Bft) O-SO 112 0 min 0 UV-I 0 W/m 6,4 km/h (2 Bft)
18.02.2014 18:20 6,7 C 72 % 1011,1 hPa 0,0 mm 1,6 km/h (1 Bft) O-SO 112 0 min 0 UV-I 0 W/m 6,4 km/h (2 Bft)
18.02.2014 18:30 6,6 C 72 % 1011,2 hPa 0,0 mm 0,0 km/h (0 Bft) O-SO 112 0 min 0 UV-I 0 W/m 4,8 km/h (1 Bft)
18.02.2014 18:40 6,4 C 72 % 1011,1 hPa 0,0 mm 1,6 km/h (1 Bft) O-SO 112 0 min 0 UV-I 0 W/m 9,7 km/h (2 Bft)
18.02.2014 18:50 6,4 C 73 % 1011,1 hPa 0,0 mm 0,0 km/h (0 Bft) O-SO 112 0 min 0 UV-I 0 W/m 8,0 km/h (2 Bft)
18.02.2014 19:00 6,3 C 73 % 1011,0 hPa 0,0 mm 0,0 km/h (0 Bft) O-SO 112 0 min 0 UV-I 0 W/m 1,6 km/h (1 Bft)
18.02.2014 19:10 6,2 C 73 % 1011,1 hPa 0,0 mm 0,0 km/h (0 Bft) O-SO 112 0 min 0 UV-I 0 W/m 1,6 km/h (1 Bft)
18.02.2014 19:20 6,1 C 73 % 1011,1 hPa 0,0 mm 0,0 km/h (0 Bft) O-SO 112 0 min 0 UV-I 0 W/m 1,6 km/h (1 Bft)
18.02.2014 19:30 6,0 C 73 % 1011,2 hPa 0,0 mm 0,0 km/h (0 Bft) O-SO 112 0 min 0 UV-I 0 W/m 1,6 km/h (1 Bft)
18.02.2014 19:40 5,8 C 73 % 1011,1 hPa 0,0 mm 0,0 km/h (0 Bft) O-SO 112 0 min 0 UV-I 0 W/m 3,2 km/h (1 Bft)
18.02.2014 19:50 5,7 C 74 % 1011,0 hPa 0,0 mm 0,0 km/h (0 Bft) O-SO 112 0 min 0 UV-I 0 W/m 4,8 km/h (1 Bft)
18.02.2014 20:00 5,6 C 74 % 1011,0 hPa 0,0 mm 0,0 km/h (0 Bft) N 0 0 min 0 UV-I 0 W/m 0,0 km/h (0 Bft)
18.02.2014 20:10 5,4 C 74 % 1010,9 hPa 0,0 mm 0,0 km/h (0 Bft) O-SO 112 0 min 0 UV-I 0 W/m 1,6 km/h (1 Bft)
18.02.2014 20:20 5,4 C 75 % 1010,9 hPa 0,0 mm 0,0 km/h (0 Bft) N 0 0 min 0 UV-I 0 W/m 0,0 km/h (0 Bft)
18.02.2014 20:30 5,3 C 75 % 1011,0 hPa 0,0 mm 0,0 km/h (0 Bft) N 0 0 min 0 UV-I 0 W/m 0,0 km/h (0 Bft)
18.02.2014 20:40 5,2 C 76 % 1010,9 hPa 0,0 mm 0,0 km/h (0 Bft) N 0 0 min 0 UV-I 0 W/m 0,0 km/h (0 Bft)
18.02.2014 20:50 5,1 C 76 % 1010,9 hPa 0,0 mm 0,0 km/h (0 Bft) N 0 0 min 0 UV-I 0 W/m 0,0 km/h (0 Bft)
18.02.2014 21:00 5,1 C 76 % 1010,9 hPa 0,0 mm 0,0 km/h (0 Bft) N 0 0 min 0 UV-I 0 W/m 0,0 km/h (0 Bft)
18.02.2014 21:10 4,9 C 77 % 1010,8 hPa 0,0 mm 0,0 km/h (0 Bft) N 0 0 min 0 UV-I 0 W/m 0,0 km/h (0 Bft)
18.02.2014 21:20 4,9 C 77 % 1011,0 hPa 0,0 mm 0,0 km/h (0 Bft) N 0 0 min 0 UV-I 0 W/m 0,0 km/h (0 Bft)
18.02.2014 21:30 4,8 C 77 % 1010,9 hPa 0,0 mm 0,0 km/h (0 Bft) N 0 0 min 0 UV-I 0 W/m 0,0 km/h (0 Bft)
18.02.2014 21:40 4,7 C 77 % 1011,1 hPa 0,0 mm 0,0 km/h (0 Bft) N 0 0 min 0 UV-I 0 W/m 0,0 km/h (0 Bft)
18.02.2014 21:50 4,6 C 77 % 1011,0 hPa 0,0 mm 0,0 km/h (0 Bft) N 0 0 min 0 UV-I 0 W/m 0,0 km/h (0 Bft)
18.02.2014 22:00 4,5 C 78 % 1011,0 hPa 0,0 mm 0,0 km/h (0 Bft) N 0 0 min 0 UV-I 0 W/m 0,0 km/h (0 Bft)
18.02.2014 22:10 4,4 C 78 % 1010,9 hPa 0,0 mm 0,0 km/h (0 Bft) N 0 0 min 0 UV-I 0 W/m 0,0 km/h (0 Bft)
18.02.2014 22:20 4,3 C 78 % 1011,0 hPa 0,0 mm 0,0 km/h (0 Bft) N 0 0 min 0 UV-I 0 W/m 0,0 km/h (0 Bft)
18.02.2014 22:30 4,3 C 79 % 1010,9 hPa 0,0 mm 0,0 km/h (0 Bft) N 0 0 min 0 UV-I 0 W/m 0,0 km/h (0 Bft)
18.02.2014 22:40 4,2 C 79 % 1010,9 hPa 0,0 mm 0,0 km/h (0 Bft) N 0 0 min 0 UV-I 0 W/m 0,0 km/h (0 Bft)
18.02.2014 22:50 4,1 C 79 % 1010,8 hPa 0,0 mm 0,0 km/h (0 Bft) N 0 0 min 0 UV-I 0 W/m 0,0 km/h (0 Bft)
18.02.2014 23:00 4,0 C 79 % 1010,7 hPa 0,0 mm 0,0 km/h (0 Bft) N 0 0 min 0 UV-I 0 W/m 0,0 km/h (0 Bft)
18.02.2014 23:10 3,9 C 79 % 1010,7 hPa 0,0 mm 0,0 km/h (0 Bft) N 0 0 min 0 UV-I 0 W/m 0,0 km/h (0 Bft)
18.02.2014 23:20 3,8 C 79 % 1010,6 hPa 0,0 mm 0,0 km/h (0 Bft) N 0 0 min 0 UV-I 0 W/m 0,0 km/h (0 Bft)
18.02.2014 23:30 3,8 C 79 % 1010,6 hPa 0,0 mm 0,0 km/h (0 Bft) N 0 0 min 0 UV-I 0 W/m 0,0 km/h (0 Bft)
18.02.2014 23:40 3,8 C 80 % 1010,6 hPa 0,0 mm 0,0 km/h (0 Bft) N 0 0 min 0 UV-I 0 W/m 0,0 km/h (0 Bft)
18.02.2014 23:50 3,7 C 80 % 1010,5 hPa 0,0 mm 0,0 km/h (0 Bft) N 0 0 min 0 UV-I 0 W/m 0,0 km/h (0 Bft)
_ Min-Zeit 03:10 15:00 23:50 - 00:00 - - - - - 00:00
Minimum _ -0,3 C 70 % 1010,5 hPa - 0,0 km/h (0 Bft) - - - - - 0,0 km/h (0 Bft)
_ Max-Zeit 14:20 09:30 01:20 00:00 12:50 - - 00:00 12:50 13:20 13:50
Maximum _ 7,8 C 93 % 1016,8 hPa 0,0 mm 6,4 km/h
O-SO (2 Bft)
- - 0 min 1 UV-I 130 W/m 16,1 km/h
O-SO (3 Bft)
Durchschnitt _ 3,6 C 83 % 1013,5 hPa #0,0 mm 1,0 km/h (0 Bft) O-SO - #0 min. 1 UV-I 71 W/m 3,8 km/h (1 Bft)